SP5AP-3 Weather Reports


Display with metric or nautical units.
time (UTC)temp
F
wind
direction
speed
MPH
gust
MPH
rain 1hr
in
rain 24hr
in
rain mn
in
humidity
%
barometer
mb
20260902031526 58 0 0.0 0.0 0.00 0.14 0.00 9 1017.3
20260902031026 58 324 0.0 1.0 0.00 0.14 0.00 9 1017.2
20260902030526 58 0 0.0 0.0 0.00 0.14 0.00 9 1017.3
20260902030025 58 0 0.0 0.0 0.00 0.14 0.00 9 1017.0
20260902025525 58 0 0.0 0.0 0.00 0.14 0.00 9 1017.1
20260902025025 58 355 0.0 1.0 0.00 0.14 0.00 9 1017.0
20260902024524 58 0 0.0 0.0 0.00 0.14 0.00 9 1017.1
20260902024024 58 341 0.0 1.0 0.00 0.14 0.00 9 1017.1
20260902023524 58 0 0.0 0.0 0.00 0.14 0.00 9 1016.9
20260902023023 58 327 0.0 1.0 0.00 0.14 0.00 9 1017.0
20260902022523 58 0 0.0 0.0 0.00 0.14 0.00 9 1017.0
20260902022023 58 0 0.0 0.0 0.00 0.14 0.00 9 1017.0
20260902021522 58 0 0.0 0.0 0.00 0.14 0.00 9 1017.1
20260902021022 58 0 0.0 0.0 0.00 0.14 0.00 9 1017.0
20260902020522 58 0 0.0 0.0 0.00 0.14 0.00 9 1017.1
20260902020021 58 0 0.0 0.0 0.00 0.14 0.00 9 1017.3
20260902015521 58 0 0.0 0.0 0.00 0.14 0.00 9 1017.0
20260902015021 58 328 0.0 1.0 0.00 0.14 0.00 9 1017.0
20260902014520 58 0 0.0 0.0 0.00 0.14 0.00 9 1017.4
20260902014020 58 0 0.0 0.0 0.00 0.14 0.00 9 1017.3
20260902013520 58 0 0.0 0.0 0.00 0.14 0.00 9 1017.3
20260902013019 58 295 1.0 1.0 0.00 0.14 0.00 9 1017.1
20260902012519 58 0 0.0 0.0 0.00 0.14 0.00 9 1017.2
20260902012019 58 0 0.0 0.0 0.00 0.14 0.00 9 1017.3
20260902011518 59 0 0.0 0.0 0.00 0.14 0.00 9 1017.0
20260902010017 59 0 0.0 0.0 0.00 0.14 0.00 9 1017.0
20260902005517 59 0 0.0 0.0 0.00 0.14 0.00 9 1017.1
20260902005017 59 0 0.0 0.0 0.00 0.14 0.00 9 1017.2
20260902004516 59 0 0.0 0.0 0.00 0.14 0.00 9 1017.1
20260902004016 59 0 0.0 0.0 0.00 0.14 0.00 9 1017.0
20260902003516 59 0 0.0 0.0 0.00 0.14 0.00 9 1016.9
20260902003015 59 0 0.0 0.0 0.00 0.14 0.00 9 1017.0
20260902002515 59 0 0.0 0.0 0.00 0.14 0.00 9 1017.1
20260902002014 59 0 0.0 0.0 0.00 0.14 0.00 9 1017.0
20260902001514 59 0 0.0 0.0 0.00 0.14 0.00 9 1016.9
20260902001014 59 0 0.0 0.0 0.00 0.14 0.00 9 1016.9
20260902000514 59 0 0.0 0.0 0.00 0.14 0.00 9 1017.2
20260902000013 59 0 0.0 0.0 0.00 0.14 0.00 9 1017.0
20260901235513 59 0 0.0 0.0 0.00 0.14 0.00 9 1017.3
20260901235013 59 0 0.0 0.0 0.00 0.14 0.00 9 1017.0
20260901234512 59 357 0.0 1.0 0.00 0.14 0.00 9 1017.3
20260901234012 59 326 1.0 1.0 0.00 0.14 0.00 9 1017.0
20260901233512 59 0 0.0 0.0 0.00 0.14 0.00 9 1016.8
20260901233011 59 0 0.0 0.0 0.00 0.14 0.00 9 1016.9
20260901232511 59 0 0.0 0.0 0.00 0.14 0.00 9 1017.1
20260901232011 59 0 0.0 0.0 0.00 0.14 0.00 9 1017.1
20260901231510 59 198 1.0 2.0 0.00 0.14 0.00 9 1017.2
20260901231010 59 0 0.0 0.0 0.00 0.14 0.00 9 1017.0
20260901230510 59 0 0.0 0.0 0.00 0.14 0.00 9 1016.9
20260901230009 59 0 0.0 0.0 0.00 0.14 0.00 9 1016.9
20260901225509 59 321 0.0 1.0 0.00 0.14 0.00 9 1017.2
20260901225009 59 0 0.0 0.0 0.00 0.14 0.00 9 1016.9
20260901224508 59 0 0.0 0.0 0.00 0.14 0.00 9 1016.8
20260901224008 59 0 0.0 0.0 0.00 0.14 0.00 9 1017.1
20260901223508 58 0 0.0 0.0 0.00 0.14 0.00 9 1017.3
20260901223007 58 3 0.0 1.0 0.00 0.14 0.00 9 1017.1
20260901222507 59 0 0.0 0.0 0.00 0.14 0.00 9 1017.0
20260901222007 59 0 0.0 0.0 0.00 0.14 0.00 9 1017.0
20260901221506 59 331 0.0 1.0 0.00 0.14 0.00 9 1017.0
20260901221006 59 0 0.0 0.0 0.00 0.14 0.00 9 1017.1
20260901220506 58 0 0.0 0.0 0.00 0.14 0.00 9 1017.1
20260901220005 58 3 0.0 1.0 0.00 0.14 0.14 9 1017.1
20260901215505 58 0 0.0 0.0 0.00 0.14 0.14 9 1016.9
20260901215005 58 352 0.0 1.0 0.00 0.14 0.14 9 1017.0
20260901214504 58 0 0.0 0.0 0.00 0.14 0.14 9 1017.2
20260901214004 58 0 0.0 0.0 0.00 0.14 0.14 9 1017.0
20260901213504 58 0 0.0 0.0 0.00 0.14 0.14 9 1017.1
20260901213003 58 0 0.0 0.0 0.00 0.14 0.14 9 1016.9
20260901212503 58 0 0.0 0.0 0.00 0.14 0.14 9 1017.0
20260901212003 58 324 0.0 1.0 0.00 0.14 0.14 9 1017.0
20260901211502 58 0 0.0 0.0 0.00 0.14 0.14 9 1017.1
20260901211002 58 0 0.0 0.0 0.00 0.14 0.14 9 1017.2
20260901210502 58 0 0.0 0.0 0.00 0.14 0.14 9 1017.1
20260901210001 58 0 0.0 0.0 0.00 0.14 0.14 9 1016.9
20260901205501 59 0 0.0 0.0 0.00 0.14 0.14 9 1016.9
20260901205001 59 0 0.0 0.0 0.00 0.14 0.14 9 1017.1
20260901204500 59 0 0.0 0.0 0.00 0.14 0.14 9 1017.2
20260901204000 59 0 0.0 0.0 0.00 0.14 0.14 9 1017.2
20260901203500 59 0 0.0 0.0 0.00 0.14 0.14 9 1017.0
20260901202959 59 0 0.0 0.0 0.00 0.14 0.14 9 1016.7
20260901202459 59 15 0.0 1.0 0.00 0.14 0.14 9 1017.0
20260901201959 59 0 0.0 0.0 0.00 0.14 0.14 9 1016.8
20260901201458 59 0 0.0 0.0 0.00 0.14 0.14 9 1016.8
20260901200958 59 0 0.0 0.0 0.00 0.14 0.14 9 1016.9
20260901200458 59 0 0.0 0.0 0.00 0.14 0.14 9 1017.2
20260901195957 59 0 0.0 0.0 0.00 0.14 0.14 9 1016.9
20260901195457 59 0 0.0 0.0 0.00 0.14 0.14 9 1017.0
20260901194957 59 0 0.0 0.0 0.00 0.14 0.14 9 1016.9
20260901194456 59 0 0.0 0.0 0.00 0.14 0.14 9 1016.9
20260901193956 59 329 0.0 1.0 0.00 0.14 0.14 9 1016.9
20260901193456 59 0 0.0 0.0 0.04 0.14 0.14 9 1017.1
20260901192955 59 0 0.0 0.0 0.08 0.14 0.14 9 1017.1
20260901192455 60 0 0.0 0.0 0.08 0.14 0.14 9 1017.2
20260901191955 60 0 0.0 0.0 0.09 0.14 0.14 9 1017.1
20260901191454 60 220 0.0 1.0 0.09 0.14 0.14 9 1016.9
20260901190954 60 43 0.0 1.0 0.09 0.14 0.14 9 1016.8
20260901190454 60 323 0.0 1.0 0.09 0.14 0.14 9 1017.0
20260901185953 60 0 0.0 0.0 0.09 0.14 0.14 9 1017.0
20260901185453 60 0 0.0 0.0 0.09 0.14 0.14 9 1017.0
20260901184953 60 0 0.0 0.0 0.09 0.14 0.14 9 1016.7
20260901184452 60 0 0.0 0.0 0.09 0.14 0.14 9 1016.9
20260901183952 61 0 0.0 0.0 0.09 0.14 0.14 9 1016.6
20260901183452 61 355 0.0 1.0 0.04 0.10 0.10 9 1016.7
20260901182951 62 119 2.0 3.0 0.00 0.06 0.06 9 1016.9
20260901182451 62 0 0.0 0.0 0.00 0.06 0.06 8 1017.1
20260901181951 63 0 0.0 0.0 0.00 0.05 0.05 8 1016.8
20260901181450 63 0 0.0 0.0 0.00 0.05 0.05 8 1016.5
20260901180950 63 13 0.0 1.0 0.00 0.05 0.05 8 1016.5
20260901180450 64 0 0.0 0.0 0.00 0.05 0.05 8 1016.4
20260901175949 64 198 0.0 1.0 0.00 0.05 0.05 8 1016.4
20260901175449 64 0 0.0 0.0 0.00 0.05 0.05 7 1016.3
20260901174949 64 0 0.0 0.0 0.00 0.05 0.05 7 1016.3
20260901174448 65 0 0.0 0.0 0.00 0.05 0.05 7 1016.2
20260901173948 65 0 0.0 0.0 0.00 0.05 0.05 7 1016.2
20260901173448 64 7 0.0 1.0 0.00 0.05 0.05 7 1015.8
20260901172947 65 0 0.0 0.0 0.00 0.05 0.05 7 1016.0
20260901172447 65 319 0.0 1.0 0.00 0.05 0.05 7 1016.0
20260901171947 65 0 0.0 0.0 0.00 0.05 0.05 7 1015.9
20260901171446 65 14 0.0 1.0 0.00 0.05 0.05 7 1015.7
20260901170946 65 0 0.0 0.0 0.00 0.05 0.05 7 1015.8
20260901170446 65 0 0.0 0.0 0.00 0.05 0.05 7 1015.7
20260901165945 66 0 0.0 0.0 0.00 0.05 0.05 7 1015.6
20260901165445 66 324 0.0 1.0 0.00 0.05 0.05 7 1015.6
20260901164945 66 349 1.0 2.0 0.00 0.05 0.05 7 1015.3
20260901164444 66 297 0.0 1.0 0.00 0.05 0.05 7 1015.0
20260901163944 66 0 0.0 0.0 0.00 0.05 0.05 7 1015.4
20260901163444 66 0 0.0 0.0 0.00 0.05 0.05 7 1015.5
20260901162943 67 348 0.0 1.0 0.00 0.05 0.05 7 1015.4
20260901162443 67 352 0.0 1.0 0.00 0.05 0.05 7 1015.4
20260901161943 67 11 2.0 4.0 0.00 0.05 0.05 7 1015.6
20260901161442 67 0 0.0 0.0 0.00 0.05 0.05 7 1015.3
20260901160943 67 309 0.0 1.0 0.00 0.05 0.05 7 1015.3
20260901160442 67 20 0.0 1.0 0.00 0.05 0.05 7 1015.1
20260901155941 67 0 0.0 0.0 0.00 0.05 0.05 7 1015.2
20260901155441 67 11 0.0 1.0 0.00 0.05 0.05 7 1015.0
20260901154941 67 354 0.0 1.0 0.00 0.05 0.05 7 1015.2
20260901154440 67 239 0.0 1.0 0.00 0.05 0.05 7 1015.3
20260901153940 67 348 0.0 1.0 0.00 0.05 0.05 7 1015.0
20260901153440 66 0 0.0 0.0 0.00 0.05 0.05 7 1015.2
20260901152939 66 0 0.0 0.0 0.00 0.05 0.05 7 1014.9
20260901152439 66 0 0.0 0.0 0.00 0.05 0.05 7 1015.0
20260901151939 67 0 0.0 0.0 0.00 0.05 0.05 7 1014.9
20260901151438 67 0 0.0 0.0 0.00 0.05 0.05 6 1015.1
20260901150938 67 0 0.0 0.0 0.00 0.05 0.05 6 1014.9
20260901150438 67 0 0.0 0.0 0.00 0.05 0.05 6 1015.0
20260901145937 68 191 3.0 4.0 0.00 0.05 0.05 6 1014.9
20260901145437 68 350 0.0 1.0 0.00 0.05 0.05 6 1014.8
20260901144937 67 0 0.0 0.0 0.00 0.05 0.05 6 1014.9
20260901144436 67 154 0.0 2.0 0.00 0.07 0.05 6 1014.7
20260901143936 68 288 1.0 2.0 0.00 0.07 0.05 6 1014.9
20260901143436 68 204 0.0 2.0 0.00 0.07 0.05 7 1014.8
20260901142935 68 0 0.0 0.0 0.00 0.08 0.05 7 1014.8
20260901142435 67 186 0.0 1.0 0.00 0.09 0.05 7 1014.8
20260901141935 67 11 0.0 1.0 0.00 0.09 0.05 7 1014.8
20260901141434 66 356 0.0 1.0 0.00 0.10 0.05 7 1014.9
20260901140934 66 339 0.0 1.0 0.00 0.10 0.05 7 1014.9
20260901140434 66 346 1.0 2.0 0.00 0.10 0.05 7 1014.8
20260901135934 66 339 0.0 1.0 0.00 0.10 0.05 7 1014.9
20260901135433 66 0 0.0 0.0 0.00 0.10 0.05 7 1014.9
20260901134933 66 359 0.0 1.0 0.00 0.10 0.05 7 1014.9
20260901134432 66 217 3.0 4.0 0.00 0.10 0.05 7 1014.8
20260901133932 66 0 0.0 0.0 0.00 0.10 0.05 7 1014.6
20260901133432 66 349 0.0 1.0 0.00 0.10 0.05 7 1014.9
20260901132931 66 355 0.0 1.0 0.00 0.10 0.05 7 1014.8
20260901132431 66 341 0.0 1.0 0.00 0.10 0.05 7 1014.9
20260901131931 65 0 1.0 1.0 0.00 0.10 0.05 7 1014.8
20260901131430 65 0 0.0 0.0 0.00 0.10 0.05 8 1014.9
20260901130930 65 4 0.0 1.0 0.00 0.10 0.05 8 1014.7
20260901130430 65 359 0.0 1.0 0.00 0.12 0.05 8 1014.9
20260901125930 65 336 0.0 2.0 0.00 0.14 0.05 7 1014.9
20260901125429 64 346 0.0 1.0 0.00 0.16 0.05 8 1015.1
20260901124929 64 0 0.0 0.0 0.00 0.18 0.05 8 1014.8
20260901124428 64 353 0.0 1.0 0.00 0.18 0.05 7 1015.0
20260901123928 65 357 0.0 1.0 0.00 0.18 0.05 8 1014.9
20260901123428 65 1 1.0 1.0 0.01 0.18 0.05 7 1014.8
20260901122928 64 341 0.0 1.0 0.03 0.20 0.05 8 1014.8
20260901122427 64 319 3.0 5.0 0.05 0.20 0.05 7 1014.9
20260901121927 64 6 0.0 2.0 0.05 0.20 0.05 8 1014.9
20260901121427 63 352 0.0 1.0 0.05 0.20 0.05 8 1014.9
20260901120926 63 341 0.0 1.0 0.05 0.20 0.05 8 1014.8
20260901120426 64 0 0.0 1.0 0.05 0.20 0.05 8 1014.7
20260901115926 63 353 1.0 3.0 0.05 0.20 0.05 8 1014.6
20260901115425 64 0 0.0 0.0 0.05 0.20 0.05 8 1014.8
20260901114925 63 0 0.0 0.0 0.05 0.20 0.05 8 1014.5
20260901114425 62 355 0.0 1.0 0.05 0.20 0.05 8 1014.5
20260901113924 63 9 0.0 1.0 0.05 0.20 0.05 8 1014.6
20260901113424 64 306 0.0 1.0 0.04 0.18 0.04 8 1014.7
20260901112924 65 320 0.0 1.0 0.01 0.16 0.01 8 1014.8
20260901112423 68 3 0.0 1.0 0.00 0.14 0.00 7 1014.7
20260901111923 69 10 0.0 1.0 0.00 0.14 0.00 7 1014.2
20260901111423 68 0 0.0 0.0 0.00 0.14 0.00 7 1014.4
20260901110922 67 294 1.0 2.0 0.00 0.14 0.00 7 1014.3
20260901110422 66 0 0.0 0.0 0.00 0.14 0.00 8 1014.3
20260901105922 65 309 0.0 1.0 0.00 0.14 0.00 8 1014.6
20260901105421 64 0 0.0 0.0 0.00 0.14 0.00 8 1014.5
20260901104921 65 0 0.0 0.0 0.00 0.14 0.00 7 1014.3
20260901104421 68 20 0.0 1.0 0.00 0.14 0.00 7 1014.4
20260901103920 68 211 2.0 3.0 0.00 0.14 0.00 6 1014.2
20260901103420 68 3 0.0 2.0 0.00 0.14 0.00 6 1014.0
20260901102920 69 0 0.0 0.0 0.00 0.14 0.00 6 1014.1
20260901102419 69 269 0.0 1.0 0.00 0.14 0.00 6 1014.0
20260901101919 68 190 1.0 2.0 0.00 0.14 0.00 6 1013.9
20260901101419 68 275 1.0 2.0 0.00 0.14 0.00 6 1014.1
20260901100918 68 0 0.0 0.0 0.00 0.14 0.00 6 1014.1
20260901100418 69 0 0.0 0.0 0.00 0.14 0.00 6 1014.2
20260901095918 70 0 0.0 0.0 0.00 0.14 0.00 6 1014.2
20260901095417 69 0 0.0 0.0 0.00 0.14 0.00 6 1014.2
20260901094917 69 301 0.0 1.0 0.00 0.14 0.00 6 1014.0
20260901094417 69 0 0.0 0.0 0.00 0.14 0.00 6 1013.9
20260901093916 70 0 0.0 0.0 0.00 0.14 0.00 6 1014.0
20260901093416 70 257 0.0 1.0 0.00 0.14 0.00 6 1013.8
20260901092916 69 302 0.0 1.0 0.00 0.14 0.00 6 1013.8
20260901092415 69 231 0.0 1.0 0.00 0.14 0.00 6 1013.9
20260901091915 70 282 0.0 1.0 0.00 0.14 0.00 6 1013.8
20260901091415 69 0 0.0 0.0 0.00 0.14 0.00 6 1013.9
20260901090914 71 218 2.0 4.0 0.00 0.14 0.00 6 1013.7
20260901090414 70 0 0.0 0.0 0.00 0.14 0.00 6 1013.7
20260901085914 69 26 0.0 1.0 0.00 0.14 0.00 6 1013.7
20260901085413 69 333 0.0 2.0 0.00 0.14 0.00 6 1013.9
20260901084913 69 0 0.0 0.0 0.00 0.14 0.00 6 1013.8
20260901084413 68 236 0.0 1.0 0.00 0.14 0.00 7 1013.6
20260901083912 68 229 0.0 3.0 0.00 0.14 0.00 7 1013.7
20260901083412 67 222 0.0 2.0 0.00 0.14 0.00 7 1013.8
20260901082912 68 258 0.0 1.0 0.00 0.14 0.00 7 1013.8
20260901082411 69 0 0.0 0.0 0.00 0.14 0.00 7 1013.8
20260901081911 69 0 0.0 0.0 0.00 0.14 0.00 7 1013.7
20260901081411 69 299 1.0 3.0 0.00 0.14 0.00 7 1013.7
20260901080910 69 329 2.0 2.0 0.00 0.14 0.00 7 1013.7
20260901080410 69 239 2.0 4.0 0.00 0.14 0.00 7 1013.6
20260901075910 69 0 0.0 1.0 0.00 0.14 0.00 7 1013.5
20260901075409 68 1 0.0 1.0 0.00 0.14 0.00 7 1013.5
20260901074909 68 0 0.0 0.0 0.00 0.14 0.00 7 1013.6
20260901074409 68 0 0.0 0.0 0.00 0.14 0.00 7 1013.3
20260901073908 68 7 0.0 1.0 0.00 0.14 0.00 7 1013.6
20260901073408 68 348 1.0 1.0 0.00 0.14 0.00 7 1013.2
20260901072908 69 0 0.0 0.0 0.00 0.14 0.00 7 1013.3
20260901072407 68 357 0.0 1.0 0.00 0.14 0.00 7 1013.4
20260901071907 68 228 3.0 4.0 0.00 0.14 0.00 7 1013.2
20260901071407 68 347 0.0 1.0 0.00 0.14 0.00 7 1013.4
20260901070906 69 0 0.0 0.0 0.00 0.14 0.00 7 1013.1
20260901070406 68 0 0.0 0.0 0.00 0.14 0.00 7 1013.1
20260901065906 67 3 1.0 2.0 0.00 0.14 0.00 7 1013.2
20260901065405 68 217 3.0 4.0 0.00 0.14 0.00 7 1013.2
20260901064905 67 0 0.0 0.0 0.00 0.14 0.00 7 1013.2
20260901064405 67 219 1.0 2.0 0.00 0.14 0.00 7 1013.1
20260901063904 66 0 0.0 0.0 0.00 0.14 0.00 7 1013.4
20260901063404 66 4 0.0 1.0 0.00 0.14 0.00 7 1013.1
20260901062904 66 0 0.0 0.0 0.00 0.14 0.00 8 1013.0
20260901062403 65 0 0.0 0.0 0.00 0.14 0.00 8 1013.0
20260901061903 65 0 0.0 0.0 0.00 0.14 0.00 8 1013.1
20260901061403 64 0 0.0 0.0 0.00 0.14 0.00 8 1013.1
20260901060902 63 349 0.0 1.0 0.00 0.14 0.00 8 1013.0
20260901060402 63 346 0.0 1.0 0.00 0.14 0.00 8 1013.1
20260901055902 63 229 2.0 3.0 0.00 0.14 0.00 8 1013.3
20260901055401 62 350 0.0 1.0 0.00 0.14 0.00 8 1013.1
20260901054901 62 356 0.0 2.0 0.00 0.14 0.00 8 1013.0
20260901054401 62 0 0.0 0.0 0.00 0.14 0.00 8 1012.8
20260901053900 61 0 0.0 0.0 0.00 0.14 0.00 9 1013.1
20260901053400 61 357 0.0 1.0 0.00 0.14 0.00 9 1012.9
20260901052900 61 287 1.0 2.0 0.00 0.14 0.00 9 1013.0
20260901052359 61 0 0.0 0.0 0.00 0.14 0.00 9 1012.9
20260901051859 61 274 0.0 1.0 0.00 0.14 0.00 9 1012.9
20260901051359 61 46 0.0 1.0 0.00 0.14 0.00 9 1012.8
20260901050858 61 0 0.0 0.0 0.00 0.14 0.00 9 1012.6
20260901050358 61 0 0.0 0.0 0.00 0.14 0.00 9 1012.8
20260901045858 61 0 0.0 0.0 0.00 0.14 0.00 9 1012.5
20260901045357 61 0 0.0 0.0 0.00 0.14 0.00 9 1012.4
20260901044857 61 0 0.0 0.0 0.00 0.14 0.00 9 1012.4
20260901044357 61 0 0.0 0.0 0.00 0.14 0.00 9 1012.8
20260901043856 61 3 0.0 1.0 0.00 0.14 0.00 9 1012.4
20260901043356 61 18 0.0 1.0 0.00 0.14 0.00 9 1012.6
20260901042856 61 0 0.0 0.0 0.00 0.14 0.00 9 1012.2
20260901042355 61 245 1.0 2.0 0.00 0.14 0.00 9 1012.5
20260901041855 61 26 0.0 1.0 0.00 0.14 0.00 9 1012.1
20260901041355 61 280 1.0 2.0 0.00 0.14 0.00 9 1012.4
20260901040854 61 285 1.0 2.0 0.00 0.14 0.00 9 1012.4
20260901040354 62 0 0.0 0.0 0.00 0.14 0.00 9 1012.2
20260901035854 62 0 0.0 0.0 0.00 0.14 0.00 9 1012.2
20260901035353 62 0 0.0 0.0 0.00 0.14 0.00 9 1012.0
20260901034853 62 340 0.0 1.0 0.00 0.14 0.00 9 1012.1
20260901034353 62 0 0.0 0.0 0.00 0.14 0.00 9 1011.9
20260901033852 62 0 0.0 0.0 0.00 0.14 0.00 9 1012.1
20260901033352 62 0 0.0 0.0 0.00 0.14 0.00 9 1012.2
20260901032852 62 0 0.0 0.0 0.00 0.14 0.00 9 1012.0
20260901032351 62 0 0.0 0.0 0.00 0.14 0.00 9 1012.0
20260901031851 62 0 0.0 0.0 0.00 0.14 0.00 9 1012.0